Погода Аул Турара Рыскулова

Погода Аул Турара Рыскулова : погода сейчас, прогноз погоды и архив. Всё, что Вы хотите узнать о погоде Аул Турара Рыскулова!

Поиск расширенной информации на нашем сайте:

Другие новости

Новости СМИ2

Главная страница сайта

Новости сайта

03.07.2017

Напоминаем, что на нашем специализированном сайте Метеоцентр.Азия вы можете получить высокодетализированные автоматические прогнозы погоды по пунктам России, СНГ и мира в авиационном формате (включающие направление и скорость ветра, видимость, явления погоды, количество и форму облачности, нижнюю и верхнюю границу облачности).


Погода Аул Турара Рыскулова - сегодня

Время (UTC), дата Ветер
(°,м/с) 
Видим.   Явления Облачность Т
(°С)
Тd
(°С)
f(%) Тe
(°С)
Pmin
(гПа)
dP
(гПа)
Po
(мм)
O2
(г/м3)
Тmin Tmax R s Состояние
почвы
15 20.04.18 060 (СВ) н/о    10/5 1000 м верхняя 
[Sc|Ci sp]
+12 +2.7 53 +12  1014.2  0.1  691  266    +17.2       
18 20.04.18 110 (В) н/о    10/4 1000 м верхняя 
[Sc|Ci sp]
+7.5 +3.2 74 +8  1015.8  0.1  691  271    +17.2       
21 20.04.18 110 (В) н/о    5/0 верхняя 
[Ci sp]
+7.6 +2.5 70 +9  1015.5  -0.3  691  270           
00 21.04.18 090 (В) н/о    3/0 верхняя 
[Ci fib]
+6.5 +2.1 73 +6  1016.2  0.3  691  272           
06 21.04.18 320 (СЗ) 20000 м    ясно 
+17.2 +4.3 42 +18  1013.4  -0.1  692  262  +4.8         
09 21.04.18 240 (ЮЗ) 20000 м    ясно 
+20 +7.3 44 +20  1010.7  -1.6  691  258           
12 21.04.18 240 (ЮЗ) 20000 м    ясно 
+19.4 +4.8 38 +20  1010.1  -0.7  690  259           
15 21.04.18 тихо ()   н/о    4/0 верхняя 
[Ci sp]
+12.5 +5.5 62 +13  1013.7  1.1  691  265    +21       
18 21.04.18 090 (В) н/о    ясно 
+10.8 +4.3 64 +11  1014.3  691  267    +21       
21 21.04.18 080 (В) н/о    ясно 
+10.2 +5.1 71 +10  1013.7  -0.6  691  267           
00 22.04.18 090 (В) н/о    ясно 
+10.8 +1.9 54 +11  1012.8  -0.7  690  267           
06 22.04.18 330 (СЗ) 20000 м    10/0 верхняя 
[Ci sp]
+24.4 +4 27 +24  1008.8  690  255  +8.7         
09 22.04.18 270 (З) 20000 м    6/1 1000 м верхняя 
[Cu med, cong|Ci sp]
+26.4 +5.1 26 +26  1006.4  -1.5  689  252           
12 22.04.18 260 (З) 20000 м    8/6 1000 м верхняя 
[Sc|Ci fib]
+25 +5.9 29 +25  1006.8  689  253           
15 22.04.18 180 (Ю) н/о    8/6 600 м кучево-дожд., верхняя 
[Cb cap|Ci sp]
+22 -0.7 22 +22  1009.1  1.1  690  257    +27.3       
18 22.04.18 тихо ()   н/о    10/10 600 м кучево-дожд. 
[Cb cap]
+16.7 +7.3 54 +17  1012  1.3  691  261    +27.3       
21 22.04.18 250 (З) н/о  слаб. ливневой дождь  10/10 600 м кучево-дожд. 
[Cb cap]
+19.2 +3.8 36 +19  1012.2  0.8  692  260           
03 23.04.18 320 (СЗ) 20000 м    10/10 600 м кучево-дожд. 
[Cb cap]
+17.3 +6.5 49 +18  1012.6  2.2  692  261      0.0     
09 23.04.18 300 (СЗ) 10 км    10/6 600 м кучево-дожд., верхняя 
[Cb cap|Ci sp]
+22 +10 46 +25  1011.7  0.2  692  256           
12 23.04.18 350 (С) 10 км    10/10 600 м кучево-дожд. 
[Cb cap]
+20.7 +12.6 60 +27  1011.6  -0.3  692  257           
15 23.04.18 130 (ЮВ) 10 км    10/10 600 м 
[Sc]
+16.5 +11.8 74 +23  1012.5  -0.5  691  260    +23       
18 23.04.18 150 (ЮВ) н/о    10/0 верхняя 
[Cs]
+15.2 +9.2 67 +18  1010.1  -2.7  689  261    +23       
21 23.04.18 070 (В) н/о    8/0 верхняя 
[Ci fib]
+15.1 +7.7 61 +15  1007.7  -2.2  688  261           
00 24.04.18 150 (ЮВ) 10 км    10/0 средняя, верхняя 
[Ac lent|Ci sp]
+16.3 +3.8 43 +18  1005.8  -1.5  687  260           
06 24.04.18 310 (СЗ) 10 км    10/5 1000 м верхняя 
[Sc|Ci sp]
+29 +13.8 39 +38  999.4  -1.2  685  247  +14.2         
Время (UTC), дата Ветер
(°,м/с) 
Видим.   Явления Облачность Т
(°С)
Тd
(°С)
f(%) Тe
(°С)
Pmin
(гПа)
dP
(гПа)
Po
(мм)
O2
(г/м3)
Тmin Tmax R s Состояние
почвы

Для получения пояснительной информации подведите курсор к названию столбца.

ПОГОДА Аул Турара Рыскулова - архив

Всё, что Вы хотите узнать о погоде Аул Турара Рыскулова - удобно и подробно!

Выберите нужную дату (начиная с 1 января 2015* года) и нажмите кнопку "Найти".
Будут отображены архивные сводки погоды по пункту Аул Турара Рыскулова, начиная с указанной даты.


Отображать данные в формате CSV (для использования в таблицах Excel)


Внимание! Наш архив погоды предназначен исключительно для личного некоммерческого использования в познавательных целях. Если Вам необходимы официальные справки о состоянии погоды (для производственных, юридических, коммерческих и т.п. целей), обращайтесь в органы Росгидромета.

*Примечание: данная дата относится к архиву по метеостанциям СССР (Россия, СНГ, Балтия).
Архив по метеостанциям Зарубежной Европы и Азии (кроме Китая) хранится 10 дней, по другим регионам земного шара (Китай, Африка, Америка, Австралия, Океания) - 1 день.

Аул Турара Рыскулова - район местоположения метеостанции


Название, широта, долгота, высота метеостанции:
Аул Турара Рыскулова (Тюлькубас) 42.5°ш. 70.3°д. 808 м над ур. моря [Казахстан]

Дополнительная информация

В oтличие oт бoльшинства пoгoдных сайтoв мы публикуем пoдрoбную метеoинфoрмацию в детальнoм прoфессиoнальнoм фoрмате.

Характеристики температуры и влажнoсти вoздуха измеряются на высoте 2 м в тени вдали oт зданий и деревьев.
Скoрoсть ветра измеряется на высoте 10 м (на урoвне рoста челoвека скoрoсть ветра ниже в 1.5-2 раза). Если метеoстанция нахoдится в гoрoде или в лесу, тo скoрoсть ветра занижена на 2-4 м/с пo сравнению с oткрытым местoм. Скoрoсть ветра над акватoриями крупных рек и oзёр, а также на вершинах хoлмoв на 2-5 м/с выше, чем в oбычных услoвиях.
Атмoсфернoе давление в разных тoчках местнoсти мoжет значительнo oтличаться oт давления на метеoстанции, в зависимoсти oт услoвий рельефа (при пoдъёме на 10 м давление пoнижается примернo на 1 мм рт.ст.).